Regional Weather Roundup
Issued by NWS

Home | Current Version | Previous Version | Graphics & Text | Print | Product List | Glossary On
Versions: 1 2 3 4 5 6 7 8 9 10 11 12 13 14 15 16 17 18 19 20 21 22 23 24 25 26 27 28 29 30 31 32 33 34 35 36 37 38 39 40 41 42 43 44 45 46 47 48 49 50
000
ASUS43 KFSD 072110
RWRSD

WEATHER ROUNDUP FOR SOUTH DAKOTA
NATIONAL WEATHER SERVICE SIOUX FALLS SD
300 PM CST SUN FEB 07 2016

NOTE: "FAIR" INDICATES FEW OR NO CLOUDS BELOW 12,000 FEET WITH NO
SIGNIFICANT WEATHER AND/OR OBSTRUCTIONS TO VISIBILITY.


SDZ001>005-009-010-012>017-072200-
NORTHWEST AND NORTH CENTRAL SOUTH DAKOTA

CITY           SKY/WX    TMP DP  RH WIND       PRES   REMARKS
BUFFALO          N/A     39   9  29 NW51G66   30.07R
FAITH            N/A     37  13  37 NW47G61   30.05R
MOBRIDGE       CLOUDY    36  20  52 NW35G53   29.96R
$$

SDZ012>016-024>037-041>051-057-063-072>074-072200-
SOUTHWEST AND SOUTH CENTRAL SOUTH DAKOTA

CITY           SKY/WX    TMP DP  RH WIND       PRES   REMARKS
RAPID CTY ARPT SUNNY     39   7  26 NW45G60   30.15S
PIERRE         PTSUNNY   39  19  44 NW32G49   29.98R
CUSTER         MOSUNNY   27   0  31 NW32G55   30.13S WCI  10
ELLSWORTH AFB  SUNNY     39  10  30 NW43G55   30.13
PHILIP         LGT RAIN  41  17  38 NW43G70   30.04S
PINE RIDGE     MOSUNNY   39   3  22 NW28G43   30.17S
SPEARFISH      HVY SNOW  34   7  32 NW33G53   30.21S WCI  19
WINNER         CLOUDY    38  23  55 NW32G38   30.00R
$$

SDZ004>011-016>023-039-040-072200-
NORTHEAST SOUTH DAKOTA

CITY           SKY/WX    TMP DP  RH WIND       PRES   REMARKS
ABERDEEN       CLOUDY    31  16  54 NW36G51   29.89R WCI  15
WATERTOWN      CLOUDY    30  23  75 NW32G43   29.78R WCI  14
BROOKINGS      FLURRIES  32  26  78 NW32G41   29.76R WCI  17
SISSETON         N/A     30  23  75 N38G45    29.78R WCI  13
$$

SDZ017-020-022-023-036>040-048>070-072200-
SOUTHEAST SOUTH DAKOTA

CITY           SKY/WX    TMP DP  RH WIND       PRES   REMARKS
SIOUX FALLS    CLOUDY    34  26  72 NW25G41   29.82R WCI  21
HURON          MIX PCPN  32  24  72 NW37G47   29.88R WCI  16
CHAMBERLAIN    CLOUDY    35  23  61 NW31G46   29.97R WCI  22
MITCHELL       CLOUDY    34  26  72 NW30G44   29.92R WCI  20
YANKTON        CLOUDY    34  28  80 W26G37    29.90S WCI  21
$$

ABBREVIATIONS USED IN REMARKS
   TC - TEMPERATURE IN CELSIUS
  WCI - WIND CHILL INDEX
   HX - HEAT INDEX
  VSB - VISIBILITY




USA.gov is the U.S. government's official web portal to all federal, state and local government web resources and services.